This demonstration page uses our WeatherBlox Daily Observations layout. Learn more.

Hourly Observations for March 15, 2016

Temp ( °F °C ) Dew Point ( °F °C ) Humidity (%) Winds ( mph kmh ) Pressure ( in mb ) Visibility ( mi km ) Precip ( " mm )
12:15 am 00:15 Clear 44 6.9 40 4.4 84 84 Calm 29.65 1004 10 16.0934 0 0
12:35 am 00:35 Clear 43 6.2 40 4.3 88 88 Calm 29.62 1003 10 16.0934 0 0
12:55 am 00:55 Clear 41 4.9 38 3.3 90 90 NNW 3 6 29.65 1004 10 16.0934 0 0
1:15 am 01:15 Clear 40 4.5 38 3.1 91 91 WNW 5 7 29.65 1004 10 16.0934 0 0
1:35 am 01:35 Clear 39 3.7 36 2.4 91 91 WNW 6 9 29.65 1004 10 16.0934 0 0
1:55 am 01:55 Clear 40 4.6 38 3.2 91 91 NW 6 9 29.65 1004 10 16.0934 0 0
2:15 am 02:15 Clear 41 4.8 39 3.7 93 93 NW 9 15 29.68 1005 10 16.0934 0 0
2:35 am 02:35 Clear 43 6 39 3.7 85 85 NNW 8 13 29.65 1004 10 16.0934 0 0
2:55 am 02:55 Clear 43 6 39 3.7 85 85 NW 9 15 29.65 1004 10 16.0934 0 0
3:15 am 03:15 Clear 45 7.2 38 3.3 77 77 NNW 14 22 29.65 1004 10 16.0934 0 0
3:35 am 03:35 Clear 44 6.8 37 3 77 77 NNW 13 20 29.65 1004 10 16.0934 0 0
3:55 am 03:55 Clear 45 7.1 37 3 75 75 NNW 10 17 29.65 1004 10 16.0934 0 0
4:15 am 04:15 Clear 44 6.5 37 3 79 79 NW 12 19 29.65 1004 10 16.0934 0 0
4:35 am 04:35 Clear 44 6.6 37 3 78 78 NW 10 17 29.68 1005 10 16.0934 0 0
4:55 am 04:55 Clear 44 6.5 38 3.1 79 79 NW 9 15 29.68 1005 10 16.0934 0 0
5:15 am 05:15 Partly Cloudy 44 6.8 37 3 77 77 NW 12 19 29.71 1006 10 16.0934 0 0
5:35 am 05:35 Partly Cloudy 44 6.8 37 2.8 76 76 NW 8 13 29.71 1006 10 16.0934 0 0
5:55 am 05:55 Mostly Cloudy 44 6.6 37 2.7 76 76 NNW 7 11 29.71 1006 10 16.0934 0 0
6:15 am 06:15 Mostly Cloudy 44 6.8 37 2.5 74 74 NNW 9 15 29.74 1007 10 16.0934 0 0
6:35 am 06:35 Cloudy 44 6.6 37 2.5 75 75 NNW 8 13 29.74 1007 10 16.0934 0 0
6:55 am 06:55 Cloudy 44 6.6 36 2.3 74 74 NNW 13 20 29.74 1007 10 16.0934 0 0
7:15 am 07:15 Cloudy 44 6.5 37 2.5 76 76 NW 9 15 29.77 1008 10 16.0934 0 0
7:35 am 07:35 Cloudy 43 6.2 36 2.4 77 77 NW 8 13 29.77 1008 10 16.0934 0 0
7:55 am 07:55 Cloudy 43 6.1 36 2.1 76 76 NW 8 13 29.8 1009 10 16.0934 0 0
8:15 am 08:15 Cloudy 43 6.1 36 2 75 75 WNW 9 15 29.8 1009 10 16.0934 0 0
8:35 am 08:35 Mostly Cloudy 43 6.3 35 1.8 73 73 WNW 10 17 29.83 1010 10 16.0934 0 0
8:55 am 08:55 Mostly Cloudy 44 6.5 35 1.7 72 72 WNW 10 17 29.83 1010 10 16.0934 0 0
9:15 am 09:15 Mostly Cloudy 44 6.8 35 1.8 71 71 WNW 12 19 29.83 1010 10 16.0934 0 0
9:35 am 09:35 Mostly Cloudy 45 7 35 1.9 70 70 NW 8 13 29.83 1010 10 16.0934 0 0
9:55 am 09:55 Cloudy 44 6.8 36 2 72 72 WNW 5 7 29.83 1010 10 16.0934 0 0
10:15 am 10:15 Mostly Cloudy 45 7.1 36 2.2 71 71 WNW 7 11 29.83 1010 10 16.0934 0 0
10:35 am 10:35 Partly Cloudy 46 8 33 0.4 59 59 NW 16 26 29.8 1009 10 16.0934 0 0
10:55 am 10:55 Sunny 49 9.3 28 -2.1 45 45 NW 16 26 29.8 1009 10 16.0934 0 0
11:55 am 11:55 Sunny 51 10.3 32 -0.2 48 48 NNW 17 28 29.8 1009 10 16.0934 0 0
12:15 pm 12:15 Sunny 52 10.9 31 -0.4 46 46 NNW 16 26 29.77 1008 10 16.0934 0 0
12:35 pm 12:35 Partly Cloudy 53 11.6 31 -0.6 43 43 NW 16 26 29.77 1008 10 16.0934 0 0
12:55 pm 12:55 Partly Cloudy 53 11.4 29 -1.6 41 41 WNW 18 30 29.77 1008 10 16.0934 0 0
1:15 pm 13:15 Sunny 54 12.2 28 -2.4 36 36 NW 15 24 29.77 1008 10 16.0934 0 0
1:35 pm 13:35 Partly Cloudy 54 12.2 27 -2.9 35 35 NW 12 19 29.77 1008 10 16.0934 0 0
1:55 pm 13:55 Mostly Cloudy 53 11.6 25 -3.8 34 34 NW 13 20 29.77 1008 10 16.0934 0 0
2:15 pm 14:15 Partly Cloudy 54 12.3 22 -5.7 28 28 W 16 26 29.77 1008 10 16.0934 0 0
2:35 pm 14:35 Mostly Cloudy 57 13.7 21 -5.9 25 25 W 16 26 29.77 1008 10 16.0934 0 0
2:55 pm 14:55 Partly Cloudy 55 13 22 -5.8 27 27 W 18 30 29.74 1007 10 16.0934 0 0
3:15 pm 15:15 Partly Cloudy 54 12.1 25 -3.7 33 33 W 23 37 29.74 1007 10 16.0934 0 0
3:35 pm 15:35 Mostly Cloudy 50 10.1 32 -0.1 49 49 NW 30 48 29.8 1009 7 11.26538 0 0
3:55 pm 15:55 Cloudy 46 8 33 0.8 61 61 NNW 24 39 29.8 1009 10 16.0934 0 0
4:15 pm 16:15 Cloudy with Light Rain 45 7.1 36 2 70 70 N 22 35 29.83 1010 10 16.0934 0 0
4:35 pm 16:35 Mostly Cloudy 47 8.3 33 0.7 59 59 NNW 18 30 29.8 1009 10 16.0934 0 0
4:55 pm 16:55 Mostly Cloudy 47 8.5 32 0 55 55 NNW 18 30 29.83 1010 10 16.0934 0 0
5:15 pm 17:15 Mostly Cloudy 49 9.3 33 0.3 54 54 WNW 22 35 29.83 1010 10 16.0934 0 0
5:35 pm 17:35 Mostly Cloudy 47 8.4 33 0.5 58 58 WNW 22 35 29.83 1010 10 16.0934 0 0
5:55 pm 17:55 Mostly Cloudy 46 7.5 32 0.2 60 60 NW 17 28 29.83 1010 10 16.0934 0 0
6:15 pm 18:15 Cloudy 43 5.9 36 2 76 76 W 10 17 29.85 1011 10 16.0934 0 0
6:35 pm 18:35 Mostly Cloudy 46 7.8 37 2.9 71 71 W 7 11 29.83 1010 10 16.0934 0 0
6:55 pm 18:55 Partly Cloudy 47 8.5 37 2.8 68 68 WNW 8 13 29.85 1011 10 16.0934 0 0
7:15 pm 19:15 Partly Cloudy 44 6.8 36 2.1 72 72 N 6 9 29.88 1012 10 16.0934 0 0
7:35 pm 19:35 Partly Cloudy 44 6.5 35 1.6 71 71 Calm 29.91 1013 10 16.0934 0 0
7:55 pm 19:55 Clear 42 5.3 33 0.6 72 72 NW 5 7 29.91 1013 10 16.0934 0 0
8:15 pm 20:15 Clear 43 6.2 32 -0.2 64 64 WNW 8 13 29.91 1013 10 16.0934 0 0
8:35 pm 20:35 Partly Cloudy 43 5.9 29 -1.8 58 58 WNW 7 11 29.91 1013 10 16.0934 0 0
8:55 pm 20:55 Clear 42 5.4 28 -2.3 58 58 W 8 13 29.91 1013 10 16.0934 0 0
9:15 pm 21:15 Clear 40 4.4 27 -2.7 60 60 W 9 15 29.97 1015 10 16.0934 0 0
9:35 pm 21:35 Clear 39 4 26 -3.2 60 60 WNW 8 13 29.97 1015 10 16.0934 0 0
9:55 pm 21:55 Clear 38 3.2 26 -3.5 62 62 W 8 13 29.97 1015 10 16.0934 0 0
10:15 pm 22:15 Clear 37 2.6 25 -3.8 63 63 W 7 11 29.97 1015 10 16.0934 0 0
10:35 pm 22:35 Clear 36 2 25 -4.1 64 64 WNW 7 11 29.97 1015 10 16.0934 0 0
10:55 pm 22:55 Clear 37 2.5 24 -4.4 61 61 W 9 15 29.97 1015 10 16.0934 0 0
11:15 pm 23:15 Clear 36 2.4 24 -4.7 60 60 W 10 17 29.97 1015 10 16.0934 0 0
11:35 pm 23:35 Clear 37 2.9 23 -4.8 57 57 W 10 17 29.97 1015 10 16.0934 0 0
11:55 pm 23:55 Clear 35 1.5 23 -4.8 63 63 W 9 15 30 1016 10 16.0934 0 0

Powered by AerisWeather